Lid_Strength_Index
6 6 7 7 11 12 15 14 12 12 11 10 8 9 9 9 10 12 3 1 -0 0 -0 -0 -2 -2 -2 -2 -2 -2 -2 -2 -2 -2 -2 -2 -2 -2 -2 -2 -2 -2 -2 -2 -2 -2 -2 -2 -2
7 6 7 10 13 15 14 15 12 11 9 7 7 7 8 11 6 4 3 1 -0 -0 -0 -0 -1 -2 -2 -2 -2 -2 -2 -2 -2 -2 -2 -2 -2 -2 -2 -2 -3 -2 -2 -2 -2 -2 -2 -2 -2
7 8 8 12 14 14 14 13 11 10 7 9 8 6 8 9 6 4 2 0 -0 0 -0 -0 -1 -2 -2 -2 -2 -2 -2 -2 -2 -2 -2 -2 -2 -2 -2 -2 -2 -2 -2 -2 -2 -2 -2 -2 -2
10 10 10 13 14 13 13 12 11 10 10 8 7 9 7 4 4 2 1 -0 0 0 0 -0 -1 -2 -2 -2 -2 -2 -2 -2 -2 -2 -2 -2 -2 -2 -2 -3 -2 -2 -2 -2 -2 -2 -2 -2 -2
10 11 13 14 14 13 12 11 10 11 10 9 8 10 10 5 2 1 1 0 0 1 1 -0 -1 -2 -2 -2 -2 -2 -2 -2 -1 -2 -2 -2 -2 -2 -2 -2 -2 -2 -2 -2 -2 -2 -2 -2 -2
13 13 14 14 14 13 11 9 10 11 10 8 8 9 9 4 2 1 1 1 0 0 0 0 1 -1 -1 -2 -2 -2 -2 -2 -2 -2 -2 -2 -2 -2 -2 -2 -2 -2 -2 -2 -2 -2 -2 -2 -2
14 14 15 14 13 12 10 9 10 10 10 8 6 9 8 4 2 1 1 1 1 0 0 1 0 0 0 -1 -1 -2 -2 -2 -2 -2 -2 -2 -2 -2 -2 -2 -2 -2 -2 -2 -2 -2 -2 -2 -2
13 14 16 15 14 13 11 10 10 9 10 6 6 9 10 5 2 2 2 1 1 0 0 2 1 0 0 0 0 -0 -1 -1 -1 -1 -1 0 -0 -1 -1 -1 -2 -2 -2 -2 -2 -2 -2 -2 -2
13 15 16 14 13 12 11 10 11 10 8 8 6 6 5 2 2 2 2 1 1 1 0 1 2 0 1 0 1 1 0 -0 -0 0 1 1 1 1 0 -0 -1 -2 -2 -2 -2 -2 -2 -2 -2
14 16 14 12 12 13 11 11 10 10 10 8 8 6 3 2 3 3 3 4 2 2 1 1 1 0 1 -0 1 1 1 1 1 1 1 1 1 1 0 1 -0 -1 -1 -2 -2 -2 -1 1 3
15 16 14 12 11 11 11 12 11 10 11 9 7 6 4 3 3 3 3 3 2 1 1 1 1 0 1 1 2 1 1 1 1 1 2 2 1 2 1 2 2 1 1 2 2 2 2 3 3
15 13 14 11 10 11 11 11 11 10 10 9 6 4 4 4 4 4 3 3 3 3 1 1 1 -0 -0 0 1 2 2 1 2 2 1 2 2 3 3 3 3 3 3 3 3 3 3 3 3
14 14 15 14 11 11 11 11 12 11 11 8 4 4 5 4 4 3 3 3 3 4 3 2 1 0 0 1 0 2 2 2 1 2 2 2 3 3 3 3 3 3 3 4 4 4 3 3 3
12 13 15 15 14 11 12 13 12 11 8 6 5 5 5 4 4 4 4 4 4 3 3 2 1 1 0 1 1 1 2 2 2 2 2 2 2 3 3 3 3 3 3 4 4 4 4 4 4
12 13 14 16 16 14 12 13 12 12 8 7 6 6 5 4 4 4 3 3 3 3 2 2 2 1 1 1 0 1 1 2 2 2 2 2 2 2 3 3 4 3 3 3 4 4 4 4 4
15 15 16 15 16 16 13 14 11 10 9 7 7 6 6 5 4 4 3 4 3 2 2 2 1 2 2 2 2 1 1 1 2 2 2 3 3 3 3 4 4 4 4 4 4 5 5 5 5
16 19 17 15 15 16 16 15 12 12 10 10 7 6 6 5 4 4 3 3 4 3 3 2 1 2 2 2 1 1 0 1 0 0 1 2 3 3 3 4 4 4 5 5 5 5 5 5 5
19 18 18 16 15 16 17 16 13 13 12 11 10 7 6 6 5 3 3 3 3 3 3 2 2 1 2 1 1 1 0 0 -0 0 0 1 2 2 2 3 4 4 4 5 6 6 7 6 6
16 17 18 17 15 17 18 17 15 14 14 13 12 11 9 6 4 5 4 4 4 3 3 3 3 2 2 2 2 2 2 1 1 0 1 1 1 2 2 2 3 4 4 5 6 7 6 7 7
16 18 18 17 16 16 18 17 15 16 14 13 12 12 11 9 9 8 8 5 4 3 3 2 3 2 2 2 2 2 2 2 0 -0 0 0 1 2 2 2 3 3 4 5 6 7 7 7 7
18 18 18 17 17 17 18 19 17 16 16 13 12 12 11 10 9 9 11 10 6 2 3 2 2 2 2 2 3 4 3 3 2 1 1 1 1 2 2 2 3 3 3 4 4 5 5 7 7
18 15 15 16 18 20 18 21 19 17 17 16 13 12 11 10 10 10 11 12 11 5 2 2 1 1 1 1 2 3 2 3 2 2 2 2 2 2 3 2 3 3 3 4 4 4 5 6 6
16 15 16 18 19 21 21 21 19 19 18 16 14 12 11 10 10 11 11 11 11 10 5 2 2 2 1 1 1 2 3 2 3 4 3 3 3 2 2 2 2 3 3 3 3 5 5 5 5
15 16 18 19 20 22 19 20 20 19 16 15 12 12 12 12 12 12 12 12 12 11 9 4 2 2 2 2 2 2 2 3 4 5 4 3 2 2 2 2 2 2 3 3 3 4 6 5 5
16 17 21 22 23 22 21 21 17 16 15 14 13 13 13 13 12 14 14 12 11 10 9 7 4 3 2 2 2 2 2 2 3 4 3 3 2 2 2 2 2 2 3 3 3 4 4 5 5
17 16 20 25 24 22 21 22 18 15 12 14 14 14 13 12 12 12 12 11 10 9 9 8 7 5 5 2 2 1 2 2 3 3 3 3 3 3 2 2 2 3 4 3 4 4 4 5 5
17 19 16 20 27 24 22 20 17 14 14 14 15 14 14 12 11 11 11 10 10 9 8 8 8 8 8 9 9 7 5 3 3 2 2 1 2 3 3 3 3 3 3 3 4 5 6 6 6
15 14 17 20 25 26 23 22 20 17 14 14 14 15 14 13 12 11 11 11 10 9 8 8 8 8 8 8 9 9 9 7 4 3 3 3 4 5 5 4 3 4 4 5 6 6 7 7 7
16 17 17 17 19 23 25 22 18 14 14 14 13 13 13 12 12 11 11 10 9 9 8 8 8 7 8 8 7 7 6 7 6 2 2 4 4 5 5 5 6 6 7 7 7 8 7 8 8
14 15 14 17 21 21 21 21 17 16 14 13 13 13 12 12 12 11 11 10 10 10 9 8 8 8 8 7 7 6 5 5 4 4 4 4 6 6 6 7 7 7 7 7 8 8 8 9 10